Location: Fours
(44.3167°N, 6.7000°E)
Time: 03:46:15
(UTC+00:00)

Cosmos 2285 Rocket - Pass Details

Date: 30 November 2020
Orbit: 971 x 998 km, 74.0° (Epoch: 24 January)

Event Time Altitude Azimuth Distance (km) Brightness Sun altitude
Rises 16:57:54 0° 339° (NNW) 3,716 7.1 -10.9°
Reaches altitude 10° 17:00:28 10° 340° (NNW) 2,759 6.4 -11.3°
Maximum altitude 17:06:54 86° 68° (ENE) 993 4.0 -12.4°
Drops below altitude 10° 17:13:14 10° 159° (SSE) 2,723 6.3 -13.5°
Sets 17:15:45 0° 160° (SSE) 3,663 7.0 -13.9°
